[[{"header":{"parameterUnit":"m.s-1","parameterCategory":1,"la1":30.2991,"la2":30.254,"lo1":-89.0895,"lo2":-89.0444,"dy":0.0017,"dx":0.0017,"nx":28,"ny":28,"refTime":"2025-04-17T03:00:00:Z","depth":0,"parameterNumber":2,"parameterNumberName":"U-component_of_WINDS"},"data":[0,0,0,0,0,0,0,0,0,0,0,0,0,0,0,0,0,0,0,0,0,0,0,0,0,0,0,0,0,0,0,0,0,0,0,0,0,0,0,0,0,0,0,0,0,0,0,0,0,0,0,0,0,0,0,0,0,0,-3.7909,-3.7909,0,-3.7967,-3.7967,-3.7968,-3.7938,-3.7937,-3.7935,-3.7934,-3.7991,-3.7994,-3.7997,0,0,0,0,0,0,0,0,0,0,0,0,0,-3.777,-3.7773,-3.7908,-3.7909,-3.791,-3.7967,-3.7967,-3.7968,-3.7939,-3.7937,-3.7935,-3.7933,-3.799,-3.7994,-3.7997,0,0,0,0,0,0,0,0,0,0,0,0,0,-3.7829,-3.7774,-3.7908,-3.7902,-3.7902,-3.7966,-3.7967,-3.7968,-3.7939,-3.7937,-3.7935,-3.7932,-3.7989,-3.7993,-3.7998,-3.8071,0,0,-3.8011,-3.8013,0,0,0,0,0,0,0,0,-3.7826,-3.7835,-3.7902,-3.7903,-3.7903,-3.7943,-3.794,-3.8003,-3.794,-3.7925,-3.7934,-3.7931,-3.7977,-3.7982,-3.7998,-3.8073,-3.8076,-3.8012,-3.8014,-3.8016,-3.8017,0,0,0,0,0,0,0,-3.7822,-3.7832,-3.7931,-3.7903,-3.7904,-3.7896,-3.7902,-3.7951,-3.7963,-3.7926,-3.7924,-3.7932,-3.7977,-3.7994,-3.7999,-3.8077,-3.8011,-3.8015,-3.8018,-3.802,-3.8215,-3.8217,0,0,0,0,0,0,-3.7819,-3.7829,-3.793,-3.7933,-3.7858,-3.79,-3.7907,-3.7932,-3.7962,-3.7965,-3.7933,-3.793,-3.7987,-3.7994,-3.8001,-3.8088,-3.8016,-3.802,-3.8023,-3.8212,-3.8215,-3.8218,0,0,0,0,0,0,-3.7816,-3.7828,-3.7927,-3.788,-3.7893,-3.7905,-3.7934,-3.7935,-3.7952,-3.7968,-3.797,-3.7949,-3.7986,-3.7995,-3.8054,-3.8089,-3.8022,-3.8026,-3.8209,-3.8213,-3.8217,-3.8262,0,0,0,0,0,0,-3.7812,-3.7827,-3.7855,-3.7881,-3.7895,-3.7979,-3.7936,-3.7938,-3.796,-3.7956,-3.7983,-3.7985,-3.7985,-3.8047,-3.8058,-3.8094,-3.803,-3.8206,-3.8211,-3.8215,-3.8257,-3.8267,-3.8275,0,0,0,0,0,-3.7807,-3.7865,-3.7857,-3.7869,-3.7931,-3.7982,-3.7989,-3.7988,-3.7963,-3.7991,-3.8001,-3.7984,-3.8084,-3.8054,-3.8065,-3.8103,-3.8204,-3.821,-3.8215,-3.8253,-3.8265,-3.8275,0,0,0,0,0,0,-3.7841,-3.7868,-3.7859,-3.7928,-3.7953,-3.7976,-3.8012,-3.8001,-3.8033,-3.8027,-3.8024,-3.8031,-3.8092,-3.8104,-3.8069,-3.8175,-3.814,-3.8148,-3.8165,-3.8176,-3.8185,-3.8179,-3.8033,0,0,0,0,0,-3.7857,-3.7897,-3.7918,-3.7976,-3.799,-3.7999,-3.8021,-3.8018,-3.8044,-3.8054,-3.8068,-3.8093,-3.813,-3.8154,-3.8189,-3.826,-3.8265,-3.8292,-3.8301,-3.8308,-3.8314,-3.8352,-3.8364,-3.8237,-3.8237,-3.8236,0,0,-3.7889,-3.7909,-3.7934,-3.7984,-3.8003,-3.8043,-3.8008,-3.8052,-3.8082,-3.806,-3.8116,-3.8128,-3.8156,-3.8221,-3.825,-3.8233,-3.8351,-3.8315,-3.8321,-3.8323,-3.8359,-3.8371,-3.8382,-3.824,-3.824,-3.8239,0,0,-3.7969,-3.7988,-3.8039,-3.8059,-3.8089,-3.8095,-3.8107,-3.8133,-3.814,-3.8197,-3.8182,-3.8217,-3.8281,-3.8301,-3.832,-3.8409,-3.8394,-3.842,-3.8465,-3.8502,-3.8512,-3.8521,-3.8551,-3.8562,-3.8427,-3.8427,-3.8428,0,-3.8005,-3.8066,-3.8066,-3.8112,-3.8133,-3.8118,-3.8168,-3.8188,-3.8227,-3.8242,-3.8223,-3.8303,-3.832,-3.8389,-3.8411,-3.8427,-3.844,-3.8416,-3.8511,-3.852,-3.8528,-3.8557,-3.8568,-3.843,-3.843,-3.843,-3.8429,0,-3.8108,-3.8151,-3.8188,-3.8227,-3.8253,-3.8301,-3.8308,-3.8335,-3.8331,-3.8339,-3.8397,-3.8418,-3.8456,-3.8473,-3.8469,-3.8542,-3.853,-3.8511,-3.8475,-3.8543,-3.857,-3.8581,-3.8434,-3.8433,-3.8433,-3.8432,0,0,-3.8207,-3.8248,-3.8261,-3.8279,-3.8311,-3.8344,-3.8392,-3.843,-3.8453,-3.8481,-3.852,-3.8576,-3.8558,-3.858,-3.8578,-3.8611,-3.8678,-3.8587,-3.8588,-3.8602,-3.8758,-3.877,-3.8783,-3.867,-3.8672,-3.8674,-3.8755,0,-3.8287,-3.8371,-3.8373,-3.8449,-3.8488,-3.8474,-3.8516,-3.854,-3.8549,-3.8583,-3.8594,-3.8632,-3.8608,-3.862,-3.8652,-3.8663,-3.8709,-3.8658,-3.8704,-3.8706,-3.8695,-3.8798,-3.8811,-3.8886,-3.8766,-3.8768,-3.8769,0,-3.8391,-3.8424,-3.8504,-3.8531,-3.8548,-3.8585,-3.862,-3.8654,-3.8681,-3.8686,-3.871,-3.8704,-3.8752,-3.8717,-3.8782,-3.8747,-3.8767,-3.8775,-3.8778,-3.878,-3.874,-3.88,-3.8911,-3.8921,-3.8786,-3.8785,-3.8783,0,-3.8453,-3.8518,-3.8574,-3.859,-3.8623,-3.865,-3.8665,-3.869,-3.8713,-3.8745,-3.876,-3.8797,-3.8816,-3.8844,-3.8848,-3.8822,-3.8913,-3.8879,-3.8917,-3.8917,-3.8934,-3.8933,-3.9047,-3.8952,-3.8951,-3.8951,-3.8951,0,-3.8541,-3.859,-3.8602,-3.8636,-3.8691,-3.8694,-3.8747,-3.876,-3.8783,-3.8819,-3.8811,-3.8845,-3.8849,-3.8884,-3.8887,-3.894,-3.895,-3.8954,-3.8953,-3.8953,-3.8952,-3.8964,-3.8957,-3.8954,-3.8954,-3.8953,-3.8952,0,-3.8618,-3.8629,-3.8689,-3.8717,-3.8725,-3.8764,-3.8787,-3.882,-3.8829,-3.8875,-3.8886,-3.89,-3.8941,-3.8948,-3.8996,-3.8999,-3.9061,-3.9057,-3.9052,-3.9051,-3.9088,-3.9083,-3.9212,-3.9228,-3.9124,-3.9125,-3.9126,0,-3.8672,-3.871,-3.8742,-3.8766,-3.8783,-3.8822,-3.8846,-3.8851,-3.8876,-3.8911,-3.8939,-3.8979,-3.9011,-3.9077,-3.9091,-3.9128,-3.9123,-3.9166,-3.9128,-3.9126,-3.9121,-3.9118,-3.9121,-3.9172,-3.9173,-3.9174,-3.9174,0,-3.8766,-3.877,-3.8805,-3.8843,-3.8872,-3.8902,-3.893,-3.895,-3.8958,-3.8987,-3.903,-3.9055,-3.9104,-3.9144,-3.9181,-3.9196,-3.9186,-3.9187,-3.9197,-3.9195,-3.919,-3.9192,-3.9069,-3.9183,-3.9182,-3.9181,-3.9181,-3.9181,-3.8832,-3.8865,-3.8893,-3.8932,-3.8955,-3.8981,-3.9013,-3.9027,-3.9063,-3.9104,-3.9105,-3.915,-3.9177,-3.9226,-3.9244,-3.9279,-3.9265,-3.9281,-3.9285,-3.9288,-3.929,-3.9187,-3.9286,-3.9286,-3.9286,-3.9286,-3.9286,0,-3.8924,-3.8942,-3.8978,-3.9018,-3.905,-3.904,-3.9071,-3.9098,-3.9138,-3.9165,-3.9197,-3.9246,-3.9284,-3.9303,-3.9341,-3.9365,-3.9362,-3.9375,-3.9372,-3.9375,-3.9301,-3.9288,-3.9377,-3.9377,-3.9377,-3.9377,-3.9377,-3.9377,-3.8975,-3.9029,-3.9036,-3.9101,-3.9119,-3.9164,-3.9182,-3.9207,-3.9228,-3.9283,-3.9315,-3.9327,-3.9351,-3.9391,-3.9425,-3.943,-3.9443,-3.9458,-3.946,-3.939,-3.9381,-3.9372,-3.9358,-3.9461,-3.9462,-3.9531,-3.9531,-3.9532]},{"header":{"parameterUnit":"m.s-1","parameterCategory":1,"la1":30.2991,"la2":30.254,"lo1":-89.0895,"lo2":-89.0444,"dy":0.0017,"dx":0.0017,"nx":28,"ny":28,"refTime":"2025-04-17T03:00:00:Z","depth":0,"parameterNumber":3,"parameterNumberName":"V-component_of_WINDS"},"data":[0,0,0,0,0,0,0,0,0,0,0,0,0,0,0,0,0,0,0,0,0,0,0,0,0,0,0,0,0,0,0,0,0,0,0,0,0,0,0,0,0,0,0,0,0,0,0,0,0,0,0,0,0,0,0,0,0,0,3.5811,3.5812,0,3.5898,3.5899,3.59,3.5934,3.5934,3.5934,3.5933,3.6018,3.602,3.6022,0,0,0,0,0,0,0,0,0,0,0,0,0,3.5669,3.5672,3.5811,3.5812,3.5813,3.5898,3.5899,3.5901,3.5934,3.5934,3.5933,3.5933,3.6017,3.602,3.6023,0,0,0,0,0,0,0,0,0,0,0,0,0,3.5741,3.5672,3.5811,3.584,3.5844,3.5898,3.5899,3.5901,3.5934,3.5934,3.5933,3.5933,3.6016,3.6019,3.6023,3.6053,0,0,3.6034,3.6036,0,0,0,0,0,0,0,0,3.5737,3.5746,3.5835,3.5838,3.5842,3.5905,3.588,3.5952,3.5934,3.59,3.5933,3.5933,3.598,3.5987,3.6004,3.6057,3.606,3.6035,3.6037,3.6038,3.6039,0,0,0,0,0,0,0,3.5732,3.5742,3.5845,3.5836,3.5841,3.5848,3.5858,3.5894,3.594,3.5903,3.5905,3.5915,3.5982,3.6,3.6006,3.6062,3.6034,3.6038,3.604,3.6041,3.6145,3.6145,0,0,0,0,0,0,3.5722,3.5738,3.5843,3.5848,3.5788,3.5851,3.5862,3.5885,3.594,3.5948,3.5916,3.5917,3.5994,3.6002,3.6009,3.6048,3.6038,3.6042,3.6044,3.6144,3.6145,3.6145,0,0,0,0,0,0,3.5719,3.5731,3.5839,3.5794,3.5808,3.5854,3.588,3.5887,3.5905,3.595,3.5958,3.5926,3.5994,3.6004,3.6042,3.6052,3.6044,3.6047,3.6144,3.6144,3.6145,3.6127,0,0,0,0,0,0,3.5715,3.573,3.5743,3.5794,3.581,3.5872,3.588,3.5889,3.5912,3.5914,3.5962,3.5969,3.5994,3.6037,3.6046,3.6057,3.605,3.6143,3.6144,3.6145,3.6127,3.6127,3.6127,0,0,0,0,0,3.571,3.5733,3.5743,3.5756,3.5827,3.5873,3.5882,3.5912,3.5913,3.5925,3.5955,3.5968,3.6049,3.604,3.6051,3.6063,3.6142,3.6144,3.6145,3.6127,3.6127,3.6127,0,0,0,0,0,0,3.5679,3.574,3.5752,3.5792,3.5827,3.5878,3.5895,3.5911,3.5945,3.5945,3.5979,3.5989,3.6025,3.6048,3.6037,3.6095,3.6097,3.61,3.6079,3.608,3.608,3.6073,3.6053,0,0,0,0,0,3.5677,3.571,3.5761,3.5792,3.5809,3.5849,3.587,3.589,3.5927,3.5941,3.5973,3.6007,3.604,3.6061,3.6094,3.613,3.6141,3.6144,3.6144,3.6144,3.6146,3.6168,3.617,3.6149,3.6149,3.6149,0,0,3.5673,3.5711,3.5729,3.5786,3.5816,3.5848,3.5861,3.5894,3.5919,3.5945,3.5985,3.6009,3.6049,3.6087,3.6105,3.6107,3.6154,3.6145,3.6145,3.6147,3.6169,3.6171,3.6173,3.615,3.615,3.615,0,0,3.5683,3.5714,3.5744,3.5774,3.5819,3.5846,3.5853,3.5902,3.592,3.5961,3.5982,3.601,3.6067,3.6095,3.6117,3.6139,3.6152,3.6148,3.6148,3.6169,3.6171,3.6172,3.618,3.6183,3.615,3.615,3.615,0,3.5671,3.5723,3.5757,3.579,3.5815,3.5843,3.5873,3.5899,3.5952,3.5968,3.597,3.6043,3.6072,3.6117,3.6123,3.6139,3.6148,3.6143,3.6168,3.617,3.6172,3.618,3.6183,3.615,3.615,3.615,3.615,0,3.5707,3.5742,3.5761,3.5814,3.584,3.5871,3.5909,3.5932,3.595,3.5976,3.6017,3.6053,3.6095,3.6107,3.6124,3.6155,3.6154,3.6162,3.6164,3.6173,3.6181,3.6184,3.6149,3.6149,3.6149,3.6149,0,0,3.5698,3.5771,3.5777,3.5802,3.5855,3.5883,3.5915,3.5958,3.5977,3.6012,3.604,3.6088,3.6096,3.612,3.6141,3.6159,3.6175,3.6164,3.6166,3.6165,3.6211,3.6206,3.6209,3.6185,3.6185,3.6186,3.6208,0,3.5715,3.5776,3.5808,3.5855,3.5889,3.5917,3.5945,3.598,3.6005,3.6036,3.6064,3.6098,3.6105,3.612,3.614,3.6169,3.6185,3.6168,3.621,3.6211,3.6199,3.6213,3.6207,3.6226,3.6211,3.6212,3.6212,0,3.5742,3.5781,3.5832,3.5882,3.5897,3.5922,3.5965,3.5994,3.6034,3.6051,3.608,3.6101,3.6135,3.6135,3.6183,3.6171,3.619,3.6207,3.6208,3.6213,3.6212,3.6218,3.6233,3.6235,3.6218,3.6217,3.6217,0,3.5732,3.5795,3.5835,3.5855,3.5914,3.5932,3.5957,3.5997,3.6021,3.6057,3.6073,3.6112,3.6133,3.6163,3.6193,3.619,3.6238,3.624,3.6253,3.6252,3.6261,3.626,3.6279,3.6273,3.6273,3.6273,3.6273,0,3.5747,3.5777,3.5831,3.5855,3.5889,3.5926,3.5958,3.5986,3.6021,3.605,3.6076,3.6102,3.6141,3.6172,3.6196,3.6232,3.6241,3.6256,3.6262,3.6254,3.6252,3.6266,3.6265,3.6274,3.6274,3.6274,3.6273,0,3.574,3.5778,3.5822,3.5876,3.589,3.5913,3.5959,3.5983,3.601,3.6047,3.6057,3.61,3.6138,3.6172,3.6221,3.6237,3.6274,3.6281,3.6261,3.6264,3.6275,3.6273,3.6304,3.631,3.63,3.63,3.63,0,3.5748,3.5772,3.5829,3.5852,3.5877,3.5912,3.5938,3.5974,3.5999,3.6048,3.6066,3.6106,3.614,3.6199,3.6234,3.6272,3.6281,3.6289,3.6286,3.6278,3.6281,3.6279,3.6282,3.6288,3.6288,3.6288,3.6288,0,3.5757,3.5775,3.5811,3.5855,3.5885,3.592,3.5956,3.5972,3.6016,3.6042,3.6083,3.6109,3.6161,3.6201,3.6243,3.6268,3.6285,3.6289,3.6294,3.6285,3.6273,3.628,3.6261,3.6288,3.6288,3.6288,3.6288,3.6288,3.5758,3.5781,3.5826,3.5866,3.5897,3.5931,3.5956,3.5988,3.6023,3.607,3.6089,3.613,3.617,3.6229,3.6253,3.6285,3.6288,3.6295,3.6297,3.6298,3.6297,3.6268,3.6293,3.6293,3.6293,3.6293,3.6293,0,3.5769,3.5799,3.5836,3.5887,3.5918,3.5934,3.5975,3.6,3.6036,3.6073,3.6107,3.6153,3.6192,3.623,3.6271,3.6289,3.6298,3.6298,3.6297,3.6303,3.6292,3.6283,3.6291,3.6291,3.6291,3.6291,3.6291,3.6291,3.5778,3.5819,3.5842,3.5899,3.5928,3.5971,3.5993,3.6023,3.6053,3.6105,3.6138,3.6163,3.6201,3.6245,3.6281,3.6291,3.6304,3.6303,3.6315,3.6304,3.6303,3.6303,3.6296,3.6305,3.6306,3.6324,3.6324,3.6324]}]]